Weather History for KRPH - March, 2013

Change the Weather History Date:

Wednesday, March 27, 2013

  Actual Average (KMWL) Record (KMWL)
Temperature  
Mean Temperature 58 °F -  
Max Temperature 74 °F 69 °F - (-1)
Min Temperature 43 °F 47 °F - (-1)
Degree Days  
Heating Degree Days 6    
Growing Degree Days 8 (Base 50)    
Moisture  
Dew Point 32 °F    
Average Humidity 38    
Maximum Humidity 54    
Minimum Humidity 25    
Precipitation  
Precipitation 0.00 in - - ()
Sea Level Pressure  
Sea Level Pressure 30.12 in    
Wind  
Wind Speed 11 mph (SSE)    
Max Wind Speed 22 mph    
Max Gust Speed 30 mph    
Visibility 10 miles    
Events      
Averages and records for this station are not official NWS values.
T = Trace of Precipitation, MM = Missing Value Source: NWS Daily Summary

Daily Weather History Graph

Daily Weather History Graph

Search for Another Location

Airport or City:

Trip Planner

Search our weather history database for the weather conditions in past years. The results will help you decide how hot, cold, wet, or windy it might be!

Date:

Astronomy

Mar. 27, 2013 Rise Set
Actual Time 7:28 AM CDT 7:51 PM CDT
Civil Twilight 7:03 AM CDT 8:15 PM CDT
Nautical Twilight 6:34 AM CDT 8:45 PM CDT
Astronomical Twilight 6:05 AM CDT 9:14 PM CDT
Moon 8:31 PM CDT (3/27) 7:22 AM CDT (3/27)
Length of Visible Light 13h 12m
Length of Day
12h 22m
Full, 100% of the Moon is Illuminated
Mar 27
Full
Apr 2
Last Quarter
Apr 10
New
Apr 18
First Quarter
Apr 25
Full

Hourly Weather History & Observations

Time (CDT) Temp. Windchill Dew Point Humidity Pressure Visibility Wind Dir Wind Speed Gust Speed Precip Events Conditions
12:15 AM 46.6 °F - 24.8 °F 43% 30.23 in 10.0 mi SE 8.1 mph - N/A   Clear
12:35 AM 46.0 °F 41.9 °F 24.8 °F 43% 30.22 in 10.0 mi ESE 8.1 mph - N/A   Clear
12:55 AM 46.4 °F 41.9 °F 24.6 °F 42% 30.22 in 10.0 mi SE 9.2 mph - N/A   Clear
1:15 AM 46.4 °F 42.4 °F 24.6 °F 42% 30.22 in 10.0 mi SE 8.1 mph - N/A   Clear
1:35 AM 45.5 °F 42.5 °F 24.8 °F 44% 30.21 in 10.0 mi SE 5.8 mph - N/A   Clear
1:55 AM 45.5 °F 41.3 °F 24.6 °F 44% 30.21 in 10.0 mi SE 8.1 mph - N/A   Clear
2:15 AM 45.1 °F 40.8 °F 24.6 °F 45% 30.20 in 10.0 mi SE 8.1 mph - N/A   Clear
2:35 AM 45.0 °F 39.7 °F 24.8 °F 45% 30.19 in 10.0 mi SE 10.4 mph - N/A   Clear
2:55 AM 44.6 °F 39.7 °F 25.2 °F 46% 30.19 in 10.0 mi SE 9.2 mph - N/A   Clear
3:15 AM 44.6 °F 40.7 °F 25.3 °F 47% 30.19 in 10.0 mi SE 6.9 mph - N/A   Clear
3:35 AM 44.6 °F 40.7 °F 25.3 °F 47% 30.18 in 10.0 mi SE 6.9 mph - N/A   Clear
3:55 AM 44.4 °F 39.5 °F 25.2 °F 47% 30.18 in 10.0 mi SSE 9.2 mph - N/A   Clear
4:15 AM 44.6 °F 39.2 °F 25.3 °F 47% 30.18 in 10.0 mi SSE 10.4 mph 16.1 mph N/A   Clear
4:35 AM 44.6 °F 39.2 °F 24.8 °F 46% 30.17 in 10.0 mi SE 10.4 mph 17.3 mph N/A   Clear
4:55 AM 45.1 °F 39.1 °F 24.3 °F 44% 30.17 in 10.0 mi SE 12.7 mph 18.4 mph N/A   Clear
5:15 AM 45.5 °F 40.3 °F 24.3 °F 43% 30.17 in 10.0 mi SE 10.4 mph 18.4 mph N/A   Clear
5:35 AM 45.0 °F 39.3 °F 23.9 °F 44% 30.16 in 10.0 mi SE 11.5 mph 17.3 mph N/A   Clear
5:55 AM 44.6 °F 39.2 °F 24.1 °F 44% 30.17 in 10.0 mi SE 10.4 mph 17.3 mph N/A   Clear
6:15 AM 44.1 °F 38.6 °F 24.4 °F 46% 30.18 in 10.0 mi SE 10.4 mph 16.1 mph N/A   Clear
6:35 AM 43.9 °F 38.3 °F 24.8 °F 47% 30.17 in 10.0 mi SE 10.4 mph 18.4 mph N/A   Clear
6:55 AM 44.1 °F 38.1 °F 25.2 °F 47% 30.17 in 10.0 mi SE 11.5 mph 21.9 mph N/A   Clear
7:15 AM 43.7 °F 38.1 °F 25.3 °F 48% 30.18 in 10.0 mi SE 10.4 mph 18.4 mph N/A   Clear
7:35 AM 43.2 °F 37.4 °F 25.7 °F 50% 30.18 in 10.0 mi SE 10.4 mph 17.3 mph N/A   Clear
7:55 AM 43.7 °F 38.6 °F 26.4 °F 51% 30.18 in 10.0 mi SE 9.2 mph - N/A   Clear
8:15 AM 45.1 °F 38.8 °F 27.1 °F 49% 30.18 in 10.0 mi SE 13.8 mph 19.6 mph N/A   Clear
8:35 AM 46.9 °F - 26.8 °F 45% 30.18 in 10.0 mi SE 17.3 mph 24.2 mph N/A   Clear
8:55 AM 48.0 °F - 26.6 °F 43% 30.19 in 10.0 mi SSE 17.3 mph 23.0 mph N/A   Clear
9:15 AM 50.2 °F - 26.1 °F 39% 30.20 in 10.0 mi SSE 10.4 mph 24.2 mph N/A   Clear
9:35 AM 52.9 °F - 25.7 °F 35% 30.20 in 10.0 mi SSE 13.8 mph 23.0 mph N/A   Clear
9:55 AM 55.4 °F - 26.4 °F 33% 30.19 in 10.0 mi South 17.3 mph 27.6 mph N/A   Clear
10:15 AM 56.7 °F - 27.1 °F 32% 30.19 in 10.0 mi SSE 19.6 mph 26.5 mph N/A   Clear
10:35 AM 58.6 °F - 28.4 °F 32% 30.18 in 10.0 mi South 16.1 mph 26.5 mph N/A   Clear
10:55 AM 59.7 °F - 29.1 °F 31% 30.18 in 10.0 mi SSE 18.4 mph 27.6 mph N/A   Clear
11:15 AM 60.4 °F - 29.5 °F 31% 30.18 in 10.0 mi South 18.4 mph 25.3 mph N/A   Clear
11:35 AM 62.1 °F - 30.6 °F 31% 30.17 in 10.0 mi SSE 12.7 mph 23.0 mph N/A   Clear
11:55 AM 63.5 °F - 32.5 °F 31% 30.17 in 10.0 mi South 21.9 mph 29.9 mph N/A   Clear
12:15 PM 64.4 °F - 33.6 °F 32% 30.16 in 10.0 mi SSE 17.3 mph 28.8 mph N/A   Clear
12:35 PM 65.7 °F - 34.9 °F 32% 30.15 in 10.0 mi South 20.7 mph 29.9 mph N/A   Clear
12:55 PM 67.1 °F - 35.4 °F 31% 30.15 in 10.0 mi South 16.1 mph 29.9 mph N/A   Clear
1:15 PM 67.6 °F - 35.8 °F 31% 30.14 in 10.0 mi South 15.0 mph 26.5 mph N/A   Clear
1:35 PM 68.2 °F - 35.8 °F 30% 30.13 in 10.0 mi SSE 18.4 mph 28.8 mph N/A   Clear
1:55 PM 68.9 °F - 35.4 °F 29% 30.12 in 10.0 mi South 11.5 mph 26.5 mph N/A   Clear
2:15 PM 70.0 °F - 35.8 °F 29% 30.10 in 10.0 mi South 18.4 mph 29.9 mph N/A   Clear
2:35 PM 72.1 °F - 35.8 °F 26% 30.09 in 10.0 mi South 20.7 mph 28.8 mph N/A   Clear
2:55 PM 71.8 °F - 36.0 °F 27% 30.08 in 10.0 mi SSE 11.5 mph 25.3 mph N/A   Clear
3:15 PM 73.0 °F - 36.0 °F 26% 30.07 in 10.0 mi South 11.5 mph 21.9 mph N/A   Clear
3:35 PM 72.3 °F - 36.1 °F 27% 30.05 in 10.0 mi SSE 17.3 mph 24.2 mph N/A   Clear
3:55 PM 72.7 °F - 36.1 °F 26% 30.04 in 10.0 mi SSE 18.4 mph 25.3 mph N/A   Clear
4:15 PM 72.9 °F - 36.3 °F 26% 30.03 in 10.0 mi South 18.4 mph 28.8 mph N/A   Clear
4:35 PM 72.7 °F - 35.8 °F 26% 30.03 in 10.0 mi SSE 17.3 mph 26.5 mph N/A   Clear
4:55 PM 74.3 °F - 35.8 °F 25% 30.02 in 10.0 mi South 11.5 mph 19.6 mph N/A   Clear
5:15 PM 73.6 °F - 36.3 °F 26% 30.02 in 10.0 mi South 16.1 mph 27.6 mph N/A   Clear
5:35 PM 73.6 °F - 36.5 °F 26% 30.02 in 10.0 mi South 12.7 mph 21.9 mph N/A   Clear
5:55 PM 73.4 °F - 36.7 °F 26% 30.01 in 10.0 mi SSE 15.0 mph 23.0 mph N/A   Clear
6:15 PM 73.0 °F - 37.4 °F 27% 30.01 in 10.0 mi SSE 19.6 mph 24.2 mph N/A   Clear
6:35 PM 72.5 °F - 37.8 °F 28% 30.00 in 10.0 mi SSE 16.1 mph 24.2 mph N/A   Clear
6:55 PM 71.8 °F - 38.5 °F 30% 29.99 in 10.0 mi SSE 17.3 mph 24.2 mph N/A   Clear
7:15 PM 70.9 °F - 38.8 °F 31% 30.00 in 10.0 mi SSE 12.7 mph 20.7 mph N/A   Clear
7:35 PM 69.4 °F - 39.2 °F 33% 30.01 in 10.0 mi SSE 9.2 mph 18.4 mph N/A   Clear
7:55 PM 68.0 °F - 39.2 °F 35% 30.01 in 10.0 mi SSE 11.5 mph 17.3 mph N/A   Clear
8:15 PM 66.9 °F - 39.6 °F 37% 30.02 in 10.0 mi SSE 8.1 mph - N/A   Clear
8:35 PM 65.3 °F - 40.1 °F 40% 30.03 in 10.0 mi SSE 8.1 mph - N/A   Clear
8:55 PM 65.3 °F - 40.1 °F 40% 30.03 in 10.0 mi SSE 10.4 mph 17.3 mph N/A   Clear
9:15 PM 64.6 °F - 40.3 °F 41% 30.04 in 10.0 mi SE 10.4 mph - N/A   Clear
9:35 PM 63.7 °F - 40.6 °F 43% 30.05 in 10.0 mi SSE 9.2 mph - N/A   Clear
9:55 PM 62.6 °F - 41.0 °F 45% 30.06 in 10.0 mi SE 8.1 mph - N/A   Clear
10:15 PM 61.7 °F - 41.4 °F 47% 30.07 in 10.0 mi ESE 5.8 mph - N/A   Clear
10:35 PM 61.0 °F - 41.9 °F 49% 30.07 in 10.0 mi SE 9.2 mph - N/A   Clear
10:55 PM 59.9 °F - 41.4 °F 50% 30.08 in 10.0 mi SE 4.6 mph - N/A   Clear
11:15 PM 59.2 °F - 41.4 °F 52% 30.08 in 10.0 mi SE 8.1 mph - N/A   Clear
11:35 PM 59.4 °F - 42.1 °F 53% 30.09 in 10.0 mi SE 8.1 mph - N/A   Clear
11:55 PM 59.0 °F - 42.4 °F 54% 30.08 in 10.0 mi SE 9.2 mph - N/A   Clear